Погода в Суво

Россия / Республика Бурятия     53°39′25″N   110°00′34″E
темп.,
°C
ветер,
м/с
пор.,
м/с
влажн.,
%
обл.,
%
осадки,
мм/ч
давл.,
гПа
погр.,
м
11 апреля, вс
вс1123:00−6юз23560 0.0 103062
02:00−7юз23600 0.0 103180
05:00−9юз23674 0.0 103288
08:00−7юз34564 0.0 1033531
11:00−3юз233461 0.0 10321658
14:00−1сз442412 0.0 10302069
17:00−2сз43241 0.0 10311428
20:00−7зсз22390 0.0 103426
12 апреля, пн
пн1223:00−8юз23480 0.0 103555
02:00−9ююз23560 0.0 103661
05:00−10ююз22600 0.0 103645
08:00−8ююз23491 0.0 1035462
11:00−3ююз223369 0.0 10321371
14:000ю223089 0.0 10281845
17:000зюз223291 0.0 10261676
20:00−5юз34544 0.0 102770
13 апреля, вт
вт1323:00−6ююз23640 0.0 102861
02:00−8ююз22660 0.0 102840
05:00−8ююз22685 0.0 102721
08:00−5ююз23551 0.0 1026374
11:000ююз344156 0.0 10211259
14:00+3ююз5538100 0.0 10161508
17:00+3юз664281 0.0 10141160
20:00−2ююз477921 0.0 1015179
14 апреля, ср
ср1423:00−3ююз239016 0.1 101459
02:00−4ююз238978 0.1 101561
05:00−4юз228297 0.0 101533
08:00−1ююз335825 0.0 1015438
11:00+3юз233291 0.0 10132120
14:00+4зсз442577 0.0 10122433
17:00+3з453070 0.0 10111666
20:00−1зюз3448100 0.0 101390
15 апреля, чт
чт1523:00−3юз2366100 0.0 101386
02:00−4юз3580100 0.1 1012165
05:00−4юз3679100 0.0 1012218
08:00−2юз44598 0.0 1012567
11:00+2юз333796 0.0 10101866
14:00+3з333297 0.4 10092121
17:00+2сз443086 0.1 10101515
20:00−2зсз224717 0.1 101437